sat.trackr.live / text

‹ back to catalog

BEIDOU-3 M9 (C29)

NORAD 43245 · 2018-029A

PAYLOAD ACTIVE UNKNOWN

§ Identity

Operator
Country
PRC
Launch date
2018-03-29
Launch site
XICLF
Launch vehicle
Mass (kg)
RCS (m²)

Purposes: nav

External: N2YO · Heavens-Above · Gunter

§ Orbital elements

Epoch: 2026-05-24T20:37:32.471040Z

Period
773.24 min
Inclination
54.2154°
Eccentricity
0.0000951
Mean motion
1.86228170 rev/d
Perigee alt
21,525.7 km
Apogee alt
21,531.0 km
Semi-major
27,906.5 km
B*
0.0000e+0
RAAN
300.7633°
Arg perigee
119.7128°
Mean anomaly
240.2737°
Rev number
5,546

§ Raw data

BEIDOU-3 M9 (C29)1 43245U 18029A   26144.85940360 -.00000087  00000+0  00000+0 0  99942 43245  54.2154 300.7633 0000951 119.7128 240.2737  1.86228170 55467

JSON: /api/v1/satellites/43245 · /tle

For live sub-satellite position, see the globe view (requires WebGL).

§ Visibility from observer

Set your observer location to see the next 7 days of passes ≥ 10°. The values pass through the URL so the page stays shareable.

No JS? Fill the form by hand. The geolocation button needs JavaScript.